Location: Bern�tre
(50.1974°N, 2.0915°E)
Time: 06:03:37
(UTC+00:00)

Cosmos 1975 Rocket - Pass Details

Date: 18 September 2020
Orbit: 603 x 634 km, 82.5° (Epoch: 27 October)

Event Time Altitude Azimuth Distance (km) Brightness Sun altitude
Rises 19:04:40 0° 347° (NNW) 2,885 6.9 -11.4°
Reaches altitude 10° 19:06:55 10° 344° (NNW) 1,972 6.1 -11.7°
Maximum altitude 19:11:12 61° 265° (W) 690 3.6 -12.4°
Drops below altitude 10° 19:15:27 10° 184° (S) 1,946 5.5 -13.0°
Sets 19:17:40 0° 181° (S) 2,844 6.3 -13.4°
